[[{"header":{"parameterUnit":"m.s-1","parameterCategory":1,"la1":30.2991,"la2":30.254,"lo1":-89.0895,"lo2":-89.0444,"dy":0.0017,"dx":0.0017,"nx":28,"ny":28,"refTime":"2023-07-25T09:00:00:Z","depth":0,"parameterNumber":2,"parameterNumberName":"U-component_of_WINDS"},"data":[0,0,0,0,0,0,0,0,0,0,0,0,0,0,0,0,0,0,0,0,0,0,0,0,0,0,0,0,0,0,0,0,0,0,0,0,0,0,0,0,0,0,0,0,0,0,0,0,0,0,0,0,0,0,0,0,0,0,1.312,1.3121,0,1.3267,1.3269,1.327,1.3322,1.3322,1.3321,1.3321,1.3473,1.3477,1.3481,0,0,0,0,0,0,0,0,0,0,0,0,0,1.2884,1.2888,1.312,1.3122,1.3123,1.3267,1.3269,1.3271,1.3322,1.3322,1.3321,1.332,1.3471,1.3476,1.3482,0,0,0,0,0,0,0,0,0,0,0,0,0,1.3004,1.289,1.3119,1.3166,1.3172,1.3266,1.3269,1.3271,1.3322,1.3322,1.3321,1.332,1.3469,1.3476,1.3483,1.3541,0,0,1.3503,1.3506,0,0,0,0,0,0,0,0,1.2998,1.3013,1.3158,1.3163,1.317,1.3275,1.3241,1.3362,1.3323,1.3265,1.3321,1.332,1.3408,1.342,1.3449,1.3548,1.3555,1.3504,1.3508,1.3511,1.3513,0,0,0,0,0,0,0,1.2989,1.3007,1.3178,1.316,1.3167,1.318,1.3197,1.3264,1.3339,1.327,1.3274,1.3291,1.3411,1.3442,1.3453,1.3557,1.3504,1.351,1.3514,1.3517,1.3711,1.3712,0,0,0,0,0,0,1.2973,1.3,1.3173,1.3182,1.308,1.3185,1.3203,1.3242,1.3339,1.3353,1.3292,1.3293,1.3431,1.3445,1.3458,1.3533,1.3511,1.3518,1.3521,1.371,1.3711,1.3713,0,0,0,0,0,0,1.2968,1.2988,1.3167,1.3092,1.3116,1.319,1.3234,1.3246,1.3277,1.3355,1.3369,1.331,1.3431,1.3449,1.352,1.3539,1.3521,1.3527,1.3709,1.371,1.3712,1.3682,0,0,0,0,0,0,1.2961,1.2986,1.3008,1.3092,1.312,1.3226,1.3235,1.3249,1.3289,1.3292,1.3376,1.3389,1.3432,1.3509,1.3527,1.3548,1.3532,1.3707,1.371,1.3711,1.3681,1.3682,1.3683,0,0,0,0,0,1.2952,1.2994,1.3009,1.303,1.315,1.3227,1.3243,1.3291,1.329,1.3313,1.3363,1.3386,1.3534,1.3516,1.3536,1.356,1.3706,1.3709,1.3711,1.3681,1.3682,1.3683,0,0,0,0,0,0,1.2911,1.3006,1.3024,1.3095,1.3152,1.3236,1.3267,1.329,1.335,1.335,1.3408,1.3427,1.3493,1.3534,1.3512,1.3621,1.3622,1.3628,1.3592,1.3593,1.3594,1.3583,1.3538,0,0,0,0,0,1.291,1.2965,1.3045,1.31,1.3128,1.3192,1.3228,1.326,1.3322,1.3347,1.3402,1.3462,1.3522,1.356,1.3619,1.3688,1.3707,1.3714,1.3714,1.3714,1.3719,1.3758,1.3762,1.372,1.372,1.372,0,0,1.2909,1.2968,1.2999,1.3093,1.3142,1.3197,1.3212,1.327,1.3312,1.3356,1.3426,1.3468,1.3539,1.3608,1.3642,1.3644,1.3735,1.3718,1.3717,1.3722,1.3761,1.3765,1.3768,1.3722,1.3722,1.3721,0,0,1.2935,1.2985,1.3036,1.3084,1.3157,1.32,1.3212,1.3292,1.3321,1.3393,1.3427,1.3477,1.3579,1.3628,1.3666,1.371,1.3733,1.3728,1.3731,1.3768,1.3771,1.3775,1.379,1.3795,1.3733,1.3732,1.3732,0,1.2925,1.3009,1.3059,1.3115,1.3155,1.3197,1.3249,1.3294,1.3382,1.3409,1.341,1.3539,1.359,1.3671,1.3682,1.3711,1.3727,1.3718,1.3767,1.3771,1.3774,1.3789,1.3795,1.3731,1.3731,1.3732,1.3732,0,1.2992,1.305,1.3082,1.3166,1.321,1.3264,1.3322,1.3361,1.3389,1.3431,1.3503,1.3565,1.3638,1.366,1.3688,1.3745,1.3744,1.3756,1.3757,1.3776,1.3791,1.3798,1.373,1.373,1.373,1.3731,0,0,1.2996,1.3107,1.3118,1.3156,1.324,1.3286,1.3341,1.3412,1.3443,1.3503,1.3551,1.3636,1.3647,1.369,1.3725,1.3757,1.3787,1.3765,1.3767,1.3766,1.3853,1.3844,1.385,1.3803,1.3804,1.3805,1.3847,0,1.3033,1.3133,1.318,1.3259,1.3313,1.3354,1.3402,1.3458,1.3499,1.3551,1.3597,1.3656,1.3666,1.3692,1.3727,1.3776,1.3805,1.3774,1.3848,1.385,1.3828,1.3858,1.3848,1.3884,1.3853,1.3854,1.3855,0,1.3088,1.3147,1.3232,1.3309,1.3333,1.3376,1.3444,1.3493,1.3558,1.3585,1.3633,1.3666,1.3726,1.3724,1.3807,1.3784,1.3818,1.3847,1.3849,1.3858,1.3853,1.3866,1.3897,1.3902,1.3865,1.3864,1.3864,0,1.3082,1.3183,1.3247,1.3278,1.337,1.3398,1.3438,1.3502,1.3541,1.3601,1.3627,1.3693,1.3729,1.3779,1.3829,1.3823,1.3907,1.3909,1.3932,1.393,1.3947,1.3946,1.3983,1.397,1.3969,1.3969,1.3969,0,1.3117,1.3167,1.3245,1.3284,1.3341,1.3395,1.345,1.3492,1.3549,1.3597,1.3637,1.3681,1.3744,1.3797,1.3837,1.3899,1.3915,1.3939,1.3949,1.3935,1.3932,1.3958,1.3956,1.3971,1.3971,1.397,1.397,0,1.312,1.3173,1.3245,1.3326,1.3347,1.3386,1.3455,1.3494,1.3537,1.3597,1.3615,1.3682,1.3746,1.3801,1.3885,1.3912,1.3976,1.3988,1.3954,1.3959,1.3978,1.3975,1.4033,1.4043,1.4022,1.4023,1.4023,0,1.3138,1.3178,1.3262,1.3297,1.3335,1.3391,1.3431,1.3486,1.3526,1.3602,1.3632,1.3699,1.3755,1.3855,1.3911,1.3976,1.399,1.4006,1.4,1.3985,1.3989,1.3986,1.399,1.4006,1.4005,1.4005,1.4005,0,1.3165,1.319,1.3246,1.3311,1.3358,1.3412,1.3468,1.3494,1.3558,1.3602,1.3667,1.371,1.3796,1.3861,1.3932,1.3973,1.4,1.4007,1.4015,1.4002,1.398,1.3991,1.3953,1.4005,1.4005,1.4005,1.4005,1.4005,1.3176,1.3213,1.3278,1.3339,1.3386,1.3437,1.3478,1.3526,1.3581,1.3654,1.3683,1.375,1.3814,1.3911,1.3952,1.4005,1.4009,1.4022,1.4025,1.4027,1.4025,1.3971,1.4018,1.4019,1.4019,1.4019,1.4019,0,1.3205,1.3249,1.3304,1.338,1.3428,1.3449,1.3511,1.355,1.3608,1.3665,1.3719,1.3794,1.3858,1.3919,1.3986,1.4016,1.403,1.4032,1.403,1.4039,1.4017,1.4003,1.4019,1.4019,1.4019,1.4019,1.4019,1.4019,1.3225,1.3288,1.3321,1.3407,1.3451,1.3516,1.355,1.3597,1.3643,1.3724,1.3777,1.3817,1.3876,1.3947,1.4006,1.4023,1.4045,1.4043,1.4063,1.4041,1.4041,1.404,1.4027,1.4048,1.4048,1.4081,1.4081,1.4081]},{"header":{"parameterUnit":"m.s-1","parameterCategory":1,"la1":30.2991,"la2":30.254,"lo1":-89.0895,"lo2":-89.0444,"dy":0.0017,"dx":0.0017,"nx":28,"ny":28,"refTime":"2023-07-25T09:00:00:Z","depth":0,"parameterNumber":3,"parameterNumberName":"V-component_of_WINDS"},"data":[0,0,0,0,0,0,0,0,0,0,0,0,0,0,0,0,0,0,0,0,0,0,0,0,0,0,0,0,0,0,0,0,0,0,0,0,0,0,0,0,0,0,0,0,0,0,0,0,0,0,0,0,0,0,0,0,0,0,2.4748,2.4747,0,2.4648,2.4646,2.4645,2.4606,2.4606,2.4607,2.4607,2.4496,2.4492,2.4489,0,0,0,0,0,0,0,0,0,0,0,0,0,2.4898,2.4895,2.4748,2.4747,2.4745,2.4648,2.4646,2.4645,2.4606,2.4606,2.4607,2.4607,2.4497,2.4493,2.4489,0,0,0,0,0,0,0,0,0,0,0,0,0,2.4818,2.4894,2.4748,2.4714,2.471,2.4648,2.4646,2.4645,2.4606,2.4606,2.4607,2.4607,2.4498,2.4493,2.4488,2.445,0,0,2.4474,2.4471,0,0,0,0,0,0,0,0,2.4823,2.4813,2.4721,2.4717,2.4712,2.464,2.4658,2.4579,2.4606,2.4645,2.4607,2.4607,2.4543,2.4534,2.4514,2.4444,2.444,2.4473,2.447,2.4468,2.4467,0,0,0,0,0,0,0,2.4828,2.4817,2.4708,2.4719,2.4714,2.4702,2.4691,2.4643,2.4592,2.4642,2.4639,2.4628,2.454,2.4519,2.4511,2.4438,2.4473,2.4469,2.4466,2.4464,2.4331,2.433,0,0,0,0,0,0,2.4841,2.4822,2.4711,2.4705,2.477,2.4699,2.4687,2.4662,2.4593,2.4583,2.4628,2.4626,2.4527,2.4517,2.4507,2.4457,2.4468,2.4464,2.4461,2.4331,2.4331,2.433,0,0,0,0,0,0,2.4844,2.4831,2.4715,2.4762,2.4747,2.4696,2.4669,2.466,2.4639,2.4582,2.4572,2.4616,2.4527,2.4514,2.4465,2.4453,2.4461,2.4457,2.4332,2.4331,2.433,2.4357,0,0,0,0,0,0,2.4849,2.4833,2.4819,2.4763,2.4745,2.4677,2.4668,2.4658,2.4632,2.4629,2.4568,2.4559,2.4526,2.4472,2.446,2.4446,2.4453,2.4333,2.4332,2.4331,2.4357,2.4357,2.4357,0,0,0,0,0,2.4854,2.4829,2.4819,2.4806,2.4727,2.4676,2.4666,2.4632,2.4631,2.4616,2.4579,2.456,2.4456,2.4468,2.4453,2.4438,2.4334,2.4332,2.4331,2.4357,2.4357,2.4357,0,0,0,0,0,0,2.4882,2.4821,2.4809,2.4765,2.4727,2.467,2.465,2.4633,2.4591,2.459,2.4547,2.4534,2.4488,2.4458,2.4471,2.4396,2.4393,2.4389,2.4418,2.4418,2.4418,2.4426,2.4449,0,0,0,0,0,2.4884,2.4851,2.4797,2.4764,2.4746,2.4701,2.4678,2.4655,2.4612,2.4595,2.4555,2.4512,2.4469,2.4442,2.4399,2.4352,2.4338,2.4335,2.4335,2.4335,2.4332,2.4304,2.4302,2.4325,2.4325,2.4325,0,0,2.4886,2.4848,2.4829,2.4769,2.4736,2.47,2.4688,2.465,2.4622,2.4588,2.454,2.4509,2.4458,2.441,2.4387,2.4383,2.4322,2.4333,2.4334,2.433,2.4303,2.43,2.4298,2.4324,2.4325,2.4325,0,0,2.4871,2.484,2.4809,2.4777,2.4729,2.47,2.4693,2.4639,2.4618,2.457,2.4544,2.4508,2.4436,2.4401,2.4373,2.4347,2.4327,2.4334,2.4334,2.4308,2.4306,2.4304,2.4294,2.4291,2.433,2.433,2.433,0,2.4879,2.4827,2.4794,2.4759,2.4732,2.4703,2.467,2.464,2.4579,2.456,2.4558,2.4468,2.4431,2.4374,2.4368,2.4347,2.4335,2.434,2.4309,2.4307,2.4305,2.4294,2.4291,2.4332,2.4331,2.4331,2.4331,0,2.4838,2.4802,2.4782,2.4728,2.4699,2.4665,2.4625,2.4599,2.4579,2.455,2.45,2.4455,2.4404,2.4388,2.4367,2.4328,2.4328,2.4318,2.4314,2.4304,2.4294,2.429,2.4333,2.4333,2.4332,2.4332,0,0,2.4838,2.4768,2.4761,2.4736,2.4681,2.4651,2.4615,2.4567,2.4546,2.4505,2.4472,2.4412,2.4403,2.4372,2.4346,2.4324,2.4305,2.4316,2.4314,2.4315,2.4258,2.4266,2.4262,2.4292,2.4291,2.429,2.4262,0,2.4816,2.4753,2.4723,2.4672,2.4637,2.4609,2.4577,2.4539,2.451,2.4475,2.4442,2.44,2.4392,2.4373,2.4349,2.4312,2.4292,2.4314,2.4259,2.4257,2.4272,2.4257,2.4264,2.424,2.4258,2.4257,2.4257,0,2.4781,2.4744,2.4691,2.4641,2.4625,2.4598,2.4552,2.4519,2.4474,2.4454,2.4421,2.4396,2.4355,2.4354,2.4295,2.431,2.4286,2.4264,2.4263,2.4255,2.4256,2.4248,2.4232,2.4228,2.425,2.4251,2.4251,0,2.4786,2.4722,2.4682,2.4662,2.4603,2.4584,2.4557,2.4514,2.4487,2.4446,2.4428,2.4381,2.4355,2.4319,2.4281,2.4285,2.4225,2.4222,2.4206,2.4207,2.4195,2.4196,2.4173,2.418,2.418,2.418,2.418,0,2.4764,2.4733,2.4684,2.4659,2.4622,2.4587,2.4551,2.4522,2.4483,2.445,2.4422,2.4391,2.4345,2.4307,2.4278,2.4233,2.4221,2.4203,2.4195,2.4205,2.4208,2.4188,2.4188,2.4179,2.4179,2.418,2.418,0,2.4763,2.473,2.4684,2.4633,2.4619,2.4594,2.4548,2.4522,2.4493,2.4452,2.444,2.4392,2.4347,2.4307,2.4246,2.4226,2.418,2.4171,2.4196,2.4192,2.4179,2.418,2.4142,2.4135,2.4148,2.4148,2.4147,0,2.4751,2.4727,2.4674,2.4652,2.4627,2.4591,2.4564,2.4528,2.4501,2.4449,2.4428,2.4382,2.4343,2.4272,2.423,2.4183,2.4172,2.4162,2.4165,2.4176,2.4171,2.4173,2.417,2.4162,2.4162,2.4162,2.4162,0,2.4734,2.4719,2.4684,2.4642,2.4612,2.4577,2.4541,2.4524,2.448,2.4451,2.4406,2.4376,2.4316,2.4269,2.4218,2.4188,2.4167,2.4162,2.4156,2.4165,2.4181,2.4172,2.4196,2.4163,2.4163,2.4163,2.4163,2.4163,2.4726,2.4703,2.4663,2.4624,2.4594,2.4561,2.4534,2.4503,2.4466,2.4416,2.4396,2.435,2.4305,2.4235,2.4205,2.4167,2.4163,2.4154,2.4151,2.415,2.4151,2.4188,2.4157,2.4157,2.4157,2.4157,2.4157,0,2.4707,2.468,2.4645,2.4597,2.4566,2.4553,2.4512,2.4487,2.4448,2.4409,2.4372,2.432,2.4275,2.4231,2.4183,2.4161,2.415,2.4149,2.415,2.4143,2.4158,2.4168,2.4159,2.4159,2.4159,2.4159,2.4159,2.4159,2.4693,2.4654,2.4634,2.4579,2.4551,2.4509,2.4486,2.4455,2.4424,2.4369,2.4333,2.4305,2.4263,2.4213,2.417,2.4158,2.4141,2.4143,2.4128,2.4142,2.4142,2.4143,2.4152,2.414,2.414,2.4117,2.4117,2.4116]}]]